Location: Middlebury
(44.0153°N, 73.1678°W)
Time: 08:04:17
(UTC-04:00)

UWE-3 - Pass Details

Date: 30 June 2024
Orbit: 566 x 652 km, 97.8° (Epoch: 12 July)

Event Time Altitude Azimuth Distance (km) Brightness Sun altitude
Rises 02:24:54 0° 29° (NNE) 2,827 ? -19.9°
Reaches altitude 10° 02:27:42 10° 49° (NE) 1,905 ? -19.7°
Maximum altitude 02:30:31 18° 92° (E) 1,452 ? -19.5°
Enters shadow 02:32:57 11° 132° (SE) 1,784 ? -19.3°
